When you browse on this site, cookies collect data to enhance your experience and personalize the content and advertising you see.
Visit our Privacy Policy to learn more. By continuing to use the site, you agree to this use of cookies and data.
  • In Czech Republic
  • List of Countries
  • For 7 days
  • Water Temperature
  • Satellite Maps
  • Weather Map
  • Weather Widgets
  • user-avatar
    Login

    Hourly Weather Namyur

    Today, 22 January, Tuesday

    Time Temperature Precipitation Wind Pressure Humidity
    00:00 -5°C° 0 mm 3 mps 752 mmHg 54%
    01:00 -5°C° 0 mm 4 mps 751 mmHg 54%
    02:00 -5°C° 0 mm 4 mps 750 mmHg 55%
    03:00 -5°C° 0 mm 5 mps 749 mmHg 55%
    04:00 -5°C° 0 mm 5 mps 748 mmHg 56%
    05:00 -5°C° 0 mm 6 mps 747 mmHg 56%
    06:00 -6°C° 0 mm 5 mps 747 mmHg 56%
    07:00 -6°C° 0 mm 6 mps 746 mmHg 53%
    08:00 -6°C° 0 mm 7 mps 746 mmHg 50%
    09:00 -6°C° 0 mm 7 mps 745 mmHg 46%
    10:00 -4°C° 0.1 mm 7 mps 744 mmHg 50%
    11:00 -4°C° 0.1 mm 7 mps 744 mmHg 54%
    12:00 -4°C° 0.1 mm 7 mps 743 mmHg 58%
    13:00 -4°C° 0.4 mm 6 mps 743 mmHg 67%
    14:00 -4°C° 0.4 mm 6 mps 742 mmHg 76%
    15:00 -4°C° 0.4 mm 5 mps 742 mmHg 85%
    16:00 -4°C° 0.3 mm 5 mps 741 mmHg 86%
    17:00 -3°C° 0.3 mm 4 mps 741 mmHg 88%
    18:00 -3°C° 0.3 mm 4 mps 740 mmHg 90%
    19:00 -4°C° 0 mm 3 mps 740 mmHg 90%
    20:00 -4°C° 0 mm 3 mps 740 mmHg 91%
    21:00 -4°C° 0 mm 3 mps 739 mmHg 92%
    22:00 -4°C° 0 mm 3 mps 739 mmHg 93%
    23:00 -4°C° 0 mm 3 mps 738 mmHg 94%

    Tomorrow, 23 January, Wednesday

    Time Temperature Precipitation Wind Pressure Humidity
    00:00 -3°C° 0 mm 2 mps 738 mmHg 94%
    01:00 -4°C° 0 mm 3 mps 737 mmHg 94%
    02:00 -4°C° 0 mm 3 mps 737 mmHg 93%
    03:00 -2°C° 0 mm 3 mps 736 mmHg 92%
    04:00 -2°C° 0 mm 3 mps 736 mmHg 92%
    05:00 -2°C° 0 mm 3 mps 736 mmHg 91%
    06:00 -2°C° 0 mm 3 mps 736 mmHg 91%
    07:00 -2°C° 0 mm 3 mps 736 mmHg 90%
    08:00 -2°C° 0 mm 3 mps 737 mmHg 88%
    09:00 -2°C° 0 mm 3 mps 737 mmHg 87%
    10:00 -1°C° 0 mm 3 mps 738 mmHg 85%
    11:00 -1°C° 0 mm 3 mps 738 mmHg 82%
    12:00 0°C° 0 mm 3 mps 739 mmHg 79%
    13:00 0°C° 0 mm 3 mps 739 mmHg 81%
    14:00 -1°C° 0 mm 4 mps 740 mmHg 83%
    15:00 -2°C° 0 mm 4 mps 740 mmHg 85%
    16:00 -2°C° 0 mm 4 mps 741 mmHg 88%
    17:00 -2°C° 0 mm 3 mps 742 mmHg 90%
    18:00 -2°C° 0 mm 3 mps 742 mmHg 93%
    19:00 -2°C° 0.1 mm 3 mps 743 mmHg 93%
    20:00 -2°C° 0.1 mm 3 mps 743 mmHg 94%
    21:00 -2°C° 0.1 mm 3 mps 744 mmHg 94%
    22:00 -4°C° 0 mm 3 mps 744 mmHg 95%
    23:00 -3°C° 0 mm 2 mps 744 mmHg 95%

    Day after tomorrow, 24 January, Thursday

    Time Temperature Precipitation Wind Pressure Humidity
    00:00 -4°C° 0 mm 2 mps 745 mmHg 96%
    01:00 -2°C° 0 mm 1 mps 745 mmHg 96%
    02:00 -2°C° 0 mm 1 mps 745 mmHg 96%
    03:00 -2°C° 0 mm 1 mps 746 mmHg 95%
    04:00 -2°C° 0 mm 1 mps 746 mmHg 95%
    05:00 -2°C° 0 mm 1 mps 746 mmHg 95%
    06:00 -2°C° 0 mm 1 mps 746 mmHg 96%
    07:00 -1°C° 0 mm 1 mps 747 mmHg 94%
    08:00 -1°C° 0 mm 1 mps 747 mmHg 93%
    09:00 0°C° 0 mm 1 mps 747 mmHg 92%
    10:00 +1°C° 0 mm 1 mps 747 mmHg 89%
    11:00 +1°C° 0 mm 2 mps 747 mmHg 87%
    12:00 +2°C° 0 mm 2 mps 748 mmHg 85%
    13:00 +2°C° 0 mm 2 mps 748 mmHg 87%
    14:00 +2°C° 0 mm 2 mps 748 mmHg 88%
    15:00 +2°C° 0 mm 2 mps 748 mmHg 90%
    16:00 +1°C° 0 mm 2 mps 748 mmHg 92%
    17:00 -1°C° 0 mm 2 mps 749 mmHg 94%
    18:00 -1°C° 0 mm 2 mps 749 mmHg 97%
    19:00 -2°C° 0 mm 2 mps 749 mmHg 96%
    20:00 -2°C° 0 mm 2 mps 749 mmHg 96%
    21:00 -2°C° 0 mm 2 mps 750 mmHg 95%
    22:00 -3°C° 0 mm 2 mps 750 mmHg 94%
    23:00 -3°C° 0 mm 2 mps 750 mmHg 93%

    25 January, Friday

    Time Temperature Precipitation Wind Pressure Humidity
    00:00 -3°C° 0 mm 2 mps 750 mmHg 92%
    01:00 -3°C° 0 mm 2 mps 749 mmHg 92%
    02:00 -3°C° 0 mm 2 mps 749 mmHg 91%
    03:00 -3°C° 0 mm 2 mps 749 mmHg 90%
    04:00 -3°C° 0.4 mm 2 mps 749 mmHg 91%
    05:00 -3°C° 0.4 mm 2 mps 749 mmHg 93%
    06:00 -2°C° 0.4 mm 2 mps 749 mmHg 94%
    07:00 -2°C° 1 mm 2 mps 750 mmHg 94%
    08:00 -2°C° 1 mm 2 mps 750 mmHg 95%
    09:00 -2°C° 1 mm 2 mps 750 mmHg 95%
    10:00 +1°C° 0 mm 1 mps 750 mmHg 93%
    11:00 +1°C° 0 mm 1 mps 751 mmHg 92%
    12:00 +2°C° 0 mm 1 mps 751 mmHg 90%
    13:00 +2°C° 0 mm 1 mps 751 mmHg 91%
    14:00 +1°C° 0 mm 2 mps 751 mmHg 92%
    15:00 +1°C° 0 mm 2 mps 751 mmHg 93%
    16:00 -1°C° 0 mm 2 mps 752 mmHg 94%
    17:00 -2°C° 0 mm 2 mps 752 mmHg 95%
    18:00 -3°C° 0 mm 2 mps 753 mmHg 95%
    19:00 -4°C° 0 mm 2 mps 753 mmHg 94%
    20:00 -3°C° 0 mm 1 mps 753 mmHg 93%
    21:00 -3°C° 0 mm 1 mps 753 mmHg 91%
    22:00 -4°C° 0 mm 1 mps 753 mmHg 90%
    23:00 -4°C° 0 mm 1 mps 753 mmHg 88%

    26 January, Saturday

    Time Temperature Precipitation Wind Pressure Humidity
    00:00 -4°C° 0 mm 1 mps 753 mmHg 86%
    01:00 -4°C° 0 mm 1 mps 753 mmHg 86%
    02:00 -4°C° 0 mm 1 mps 752 mmHg 86%
    03:00 -6°C° 0 mm 2 mps 752 mmHg 85%
    04:00 -6°C° 0 mm 2 mps 752 mmHg 86%
    05:00 -6°C° 0 mm 2 mps 751 mmHg 87%
    06:00 -6°C° 0 mm 2 mps 751 mmHg 88%
    07:00 -6°C° 0 mm 3 mps 751 mmHg 88%
    08:00 -6°C° 0 mm 3 mps 751 mmHg 87%
    09:00 -5°C° 0 mm 3 mps 751 mmHg 87%
    10:00 -4°C° 0 mm 4 mps 750 mmHg 86%
    11:00 -3°C° 0 mm 4 mps 750 mmHg 84%
    12:00 -2°C° 0 mm 4 mps 749 mmHg 82%
    13:00 -2°C° 0 mm 4 mps 749 mmHg 82%
    14:00 -2°C° 0 mm 4 mps 748 mmHg 82%
    15:00 -2°C° 0 mm 4 mps 747 mmHg 82%
    16:00 -2°C° 0 mm 4 mps 747 mmHg 82%
    17:00 -3°C° 0 mm 4 mps 747 mmHg 83%
    18:00 -3°C° 0 mm 4 mps 747 mmHg 83%
    19:00 -2°C° 0.2 mm 3 mps 747 mmHg 85%
    20:00 -2°C° 0.2 mm 3 mps 747 mmHg 86%
    21:00 -2°C° 0.2 mm 3 mps 746 mmHg 88%
    22:00 -2°C° 0.3 mm 3 mps 746 mmHg 89%
    23:00 -2°C° 0.3 mm 3 mps 746 mmHg 90%

    27 January, Sunday

    Time Temperature Precipitation Wind Pressure Humidity
    00:00 -2°C° 0.3 mm 3 mps 745 mmHg 91%
    01:00 -2°C° 0.2 mm 2 mps 745 mmHg 92%
    02:00 -2°C° 0.2 mm 2 mps 745 mmHg 93%
    03:00 -2°C° 0.2 mm 2 mps 744 mmHg 94%
    04:00 -2°C° 0.1 mm 2 mps 744 mmHg 94%
    05:00 -2°C° 0.1 mm 2 mps 744 mmHg 94%
    06:00 -2°C° 0.1 mm 2 mps 744 mmHg 95%
    07:00 -2°C° 0.1 mm 2 mps 744 mmHg 95%
    08:00 -1°C° 0.1 mm 2 mps 744 mmHg 96%
    09:00 -1°C° 0.1 mm 2 mps 744 mmHg 96%
    10:00 -1°C° 0 mm 2 mps 744 mmHg 97%
    11:00 +1°C° 0 mm 2 mps 744 mmHg 97%
    12:00 +1°C° 0 mm 2 mps 744 mmHg 98%
    13:00 +1°C° 0 mm 2 mps 743 mmHg 98%
    14:00 +1°C° 0 mm 2 mps 743 mmHg 98%
    15:00 +1°C° 0 mm 2 mps 743 mmHg 97%
    16:00 -1°C° 0 mm 2 mps 743 mmHg 96%
    17:00 -2°C° 0 mm 2 mps 743 mmHg 95%
    18:00 -4°C° 0 mm 3 mps 743 mmHg 94%
    19:00 -4°C° 0 mm 3 mps 743 mmHg 94%
    20:00 -4°C° 0 mm 3 mps 743 mmHg 94%
    21:00 -4°C° 0 mm 3 mps 743 mmHg 94%
    22:00 -4°C° 0.1 mm 3 mps 743 mmHg 94%
    23:00 -4°C° 0.1 mm 3 mps 743 mmHg 95%
    Show more